Miscellaneous Local Product
Issued by NWS Hastings, NE

Home | Current Version | Previous Version | Text Only | Print | Product List | Glossary On
Versions: 1 2 3 4 5 6 7 8 9 10 11 12 13 14 15 16 17 18 19 20 21 22 23 24 25 26 27 28 29 30 31 32 33 34 35 36 37 38 39 40 41 42 43 44 45 46 47 48 49 50
000
AXUS43 KGID 271702
MISGRI

GID CWA HOURLY WEATHER ROUNDUP
NATIONAL WEATHER SERVICE HASTINGS NE
1200 PM CDT WED MAY 27 2015

NOTE: "FAIR" INDICATES FEW OR NO CLOUDS BELOW 12,000 FEET WITH NO
SIGNIFICANT WEATHER AND/OR OBSTRUCTIONS TO VISIBILITY.

...SOUTH CENTRAL NEBRASKA...

CITY           SKY/WX    TMP DP  RH WIND       PRES   REMARKS
GRAND ISLAND   SUNNY     76  46  34 VRB7      30.10S
HASTINGS       FAIR      75  47  36 S8        30.10R
KEARNEY        MOSUNNY   75  46  35 SE10      30.10S
ORD            SUNNY     75  47  36 S10       30.08R
YORK           SUNNY     75  50  41 W3        30.10S
AURORA         SUNNY     76  45  33 CALM      30.09S
LEXINGTON      CLOUDY    72  48  43 SE12      30.10S
HOLDREGE       PTSUNNY   72  42  34 S10       30.10R
HEBRON         SUNNY     76  43  30 E3        30.09S

...NEBRASKA PANHANDLE...

CITY           SKY/WX    TMP DP  RH WIND       PRES   REMARKS
CHADRON        MOSUNNY   69  55  60 S15       30.01S
ALLIANCE       PTSUNNY   65  54  67 S20G26    30.05S
SCOTTSBLUFF    MOSUNNY   65  54  67 SE8       30.04S
SIDNEY         PTSUNNY   65  55  70 SE10      30.07

...WESTERN AND NORTH CENTRAL NEBRASKA...

CITY           SKY/WX    TMP DP  RH WIND       PRES   REMARKS
VALENTINE      CLOUDY    69  50  50 S10       30.07R
AINSWORTH      CLOUDY    70  50  47 S8        30.08S
ONEILL         SUNNY     76  49  38 S5        30.07S
BROKEN BOW     PTSUNNY   74  48  39 S10G21    30.09S
IMPERIAL       PTSUNNY   69  56  62 SE15      30.08S
NORTH PLATTE   PTSUNNY   71  51  49 SE8       30.09S
MCCOOK         CLOUDY    70  54  56 SE10      30.09R

...EASTERN NEBRASKA...

CITY           SKY/WX    TMP DP  RH WIND       PRES   REMARKS
NORFOLK        SUNNY     78  54  43 CALM      30.06S
SO SIOUX CITY  SUNNY     78  56  46 CALM      30.05R
TEKAMAH        SUNNY     79  55  43 VRB3      30.05S
COLUMBUS       SUNNY     77  50  38 S3        30.09S
ALBION         MOSUNNY   76  47  34 SW5       30.08S
OMAHA EPPLEY   MOSUNNY   77  56  48 CALM      30.06S
OFFUTT AFB     SUNNY     77  57  50 VRB2      30.06S
MILLARD        SUNNY     77  56  49 NW5       30.06S
LINCOLN        SUNNY     79  51  37 SW3       30.08S
NEBRASKA CITY  SUNNY     77  49  37 NW5       30.09R
BEATRICE       SUNNY     76  49  38 CALM      30.10R
FALLS CITY     SUNNY     78  52  40 VRB3      30.09R

...NORTHERN KANSAS...

CITY           SKY/WX    TMP DP  RH WIND       PRES   REMARKS
GOODLAND       CLOUDY    68  57  68 S16G25    30.08S
HILL CITY      LGT RAIN  68  57  68 SE7       30.10R
NORTON         MOSUNNY   73  50  43 SE9       30.09S
PHILLIPSBURG   SUNNY     79  54  41 E9        30.09S HAZE
SMITH CENTER   MOSUNNY   72  48  43 E9        30.11R
HAYS           CLOUDY    73  57  56 E12       30.09S
RUSSELL        PTSUNNY   75  58  55 E12       30.08S
CONCORDIA      MOSUNNY   76  49  38 E9        30.10R
SALINA         SUNNY     77  55  46 VRB7G17   30.10R
TOPEKA         SUNNY     77  56  48 VRB6      30.10R



USA.gov is the U.S. government's official web portal to all federal, state and local government web resources and services.